Temperature
18 17 16 16 16 16 16 15 15 15 15 15 15 14 14 14 14 14 14 14 14 14 13 13 13 13 13 13 13 13 13 13 13 13 13 13 13 13 13 13 13 13 13
18 17 16 16 16 16 16 15 15 15 15 15 15 15 14 14 14 14 14 13 13 13 13 13 13 13 13 13 13 13 13 13 13 13 14 14 14 13 13 13 13 13 12
18 17 16 16 16 16 15 15 15 15 15 15 15 14 14 14 14 14 14 13 13 13 13 13 13 13 13 13 13 12 12 12 13 13 13 14 14 13 13 13 12 12 12
18 17 16 16 16 16 15 15 15 15 15 15 14 14 14 14 14 14 13 13 13 13 13 13 12 12 12 12 12 12 12 12 12 12 12 12 13 13 13 13 13 12 12
18 17 16 16 16 16 15 15 15 15 15 15 15 14 14 14 13 13 13 13 13 13 13 12 12 12 12 12 12 12 12 12 12 12 12 12 12 13 13 13 12 12 12
17 17 16 16 15 15 15 15 15 15 15 15 15 14 14 14 13 13 13 13 13 12 12 12 12 12 12 12 12 12 12 12 12 12 12 12 12 12 12 13 13 12 12
17 16 16 15 15 15 15 15 15 14 14 14 14 14 14 13 13 13 13 13 12 12 12 12 12 12 12 12 12 12 12 12 11 11 11 11 12 12 12 12 12 12 12
17 16 16 16 15 15 15 15 15 14 14 14 14 14 13 13 13 13 13 12 12 12 12 12 11 11 11 11 11 11 11 11 11 11 11 11 11 11 11 12 12 12 12
16 16 16 15 15 15 15 15 15 14 14 14 14 14 13 13 13 13 12 12 12 12 12 11 11 11 11 11 11 11 11 11 11 11 11 11 11 11 11 11 11 11 12
16 16 15 15 15 15 15 15 14 14 14 14 14 14 13 13 13 13 12 12 12 12 11 11 11 11 11 11 11 11 11 11 11 11 11 11 11 11 11 11 11 11 11
16 16 15 15 15 15 15 15 14 14 14 14 13 13 13 13 13 12 12 12 12 12 11 11 11 11 11 11 11 10 10 10 10 10 10 10 10 11 11 11 11 10 11
16 15 15 14 14 14 14 14 14 14 14 13 13 13 13 13 12 12 12 12 11 11 11 11 10 10 10 10 10 10 10 10 10 10 10 10 10 10 10 10 10 10 10
15 15 15 14 14 14 14 14 14 14 13 13 13 13 12 12 12 12 12 11 11 11 11 10 10 10 10 10 10 10 10 10 10 10 10 10 10 10 10 10 10 10 10
15 15 14 14 14 14 14 14 13 13 13 13 13 12 12 12 12 11 11 11 11 11 10 10 10 10 10 10 9 9 9 9 9 9 9 9 9 9 9 9 9 10 10
15 14 14 14 13 13 13 13 13 13 13 13 12 12 12 11 11 11 11 11 10 10 10 10 10 10 10 9 9 9 9 9 9 9 9 9 9 9 9 9 9 9 9
14 14 14 13 13 13 13 13 13 13 12 12 12 12 11 11 11 11 10 10 10 10 10 10 10 10 10 9 10 9 9 9 9 9 9 9 9 9 9 9 9 9 9
14 14 13 13 13 13 13 13 12 12 12 12 12 11 11 11 11 11 10 10 10 10 9 9 9 9 9 9 9 9 9 9 8 8 8 8 9 9 8 9 9 9 9
14 14 13 13 13 13 12 12 12 12 12 11 11 11 11 11 11 10 10 10 10 9 9 9 9 9 9 9 9 9 9 8 8 8 8 8 8 8 8 8 8 8 8
14 13 13 13 12 12 12 12 12 11 11 11 11 11 11 11 10 10 10 10 9 9 9 9 9 9 9 9 9 9 8 8 8 8 8 8 8 8 8 8 8 8 8
13 13 13 12 12 12 12 11 11 11 11 11 11 11 10 10 10 10 10 9 9 9 9 9 9 8 8 9 9 8 8 8 8 8 8 8 8 8 8 7 7 7 8
13 13 12 12 12 11 11 11 11 11 10 10 10 10 10 10 10 9 9 9 9 9 8 8 8 8 8 8 8 8 8 8 8 8 8 8 8 8 8 7 7 7 7
12 12 12 12 11 11 11 11 10 10 10 10 10 10 10 9 9 9 9 8 8 8 8 8 8 8 8 8 7 8 8 7 7 8 8 8 8 8 8 7 7 7 7
12 11 11 11 11 11 10 10 10 10 10 9 9 9 9 9 9 8 8 8 8 8 8 7 7 7 7 7 7 7 7 7 7 7 7 7 7 7 7 7 7 7 7
11 11 11 11 10 10 10 10 10 9 9 9 9 9 9 8 8 8 8 7 7 7 7 7 7 7 7 7 7 7 7 7 7 7 7 7 7 7 6 6 7 6 6
11 10 10 10 10 10 9 9 9 9 9 9 8 8 8 8 8 8 8 7 7 7 7 7 6 6 6 6 6 6 6 6 6 6 6 6 6 6 6 6 6 6 6
10 10 10 9 9 9 9 9 9 9 8 8 8 8 8 7 7 7 7 7 7 7 7 7 6 6 6 6 6 6 6 6 6 6 5 5 5 5 5 5 5 5 5
Wind_Speed
7 7 7 7 7 7 7 7 6 5 4 3 3 2 2 2 2 1 1 1 1 1 1 1 1 1 1 1 2 1 2 2 1 0 1 1 1 1 2 2 2 3 3
8 8 8 8 8 8 8 7 6 5 5 3 3 2 2 2 2 1 2 1 1 1 1 1 1 1 1 1 1 1 1 1 1 1 1 1 2 1 1 1 2 2 2
9 10 10 9 9 9 9 7 7 6 5 5 3 3 3 2 2 2 1 1 1 1 0 1 1 0 1 1 1 1 0 0 1 2 2 1 1 1 1 1 1 2 2
9 9 9 10 10 10 9 8 8 7 6 6 5 5 4 3 3 2 2 2 1 1 1 1 0 0 0 1 1 1 0 1 0 0 2 2 2 2 1 0 1 2 2
8 9 9 10 10 10 9 8 8 7 7 6 6 5 4 3 2 2 3 2 2 2 1 1 1 1 1 1 1 1 1 1 1 1 1 1 2 3 3 2 2 1 1
7 8 8 8 9 8 9 8 8 8 7 7 6 6 5 4 4 3 3 3 2 2 2 2 2 2 1 1 2 2 2 2 1 2 1 1 2 2 2 3 3 2 1
5 7 8 9 9 9 9 9 9 8 8 8 7 7 6 6 5 4 4 3 2 2 2 2 2 2 2 2 2 2 2 2 2 2 2 2 2 2 3 3 3 3 2
4 5 7 8 8 9 9 9 9 9 9 8 8 7 6 5 4 4 4 4 2 2 2 3 3 2 2 2 2 2 2 2 3 3 2 2 2 2 3 3 3 3 3
3 4 5 7 7 8 8 9 9 9 9 8 8 7 7 6 5 5 5 3 3 2 3 3 3 2 2 2 2 2 2 2 2 2 3 2 2 2 3 3 4 4 4
2 3 4 5 6 7 7 8 8 8 8 8 7 6 7 7 6 5 5 4 4 3 3 3 3 3 3 3 3 3 2 2 2 2 3 3 3 2 2 3 4 4 4
2 3 3 4 4 5 6 7 8 8 8 8 8 8 7 7 6 6 5 5 5 4 4 4 3 3 3 3 3 3 3 4 3 3 3 3 3 3 3 3 3 4 4
1 2 3 4 4 5 5 5 6 7 7 8 8 8 7 7 7 7 6 6 5 5 5 4 4 4 4 4 4 4 4 4 4 4 3 4 3 4 3 3 4 4 4
1 2 3 3 4 4 4 5 5 5 6 6 7 7 7 8 7 7 6 6 6 6 6 5 5 5 5 5 5 5 5 5 5 5 5 5 4 4 4 4 4 4 4
2 2 3 3 4 4 4 4 5 5 5 6 6 7 7 7 7 7 7 7 6 6 6 6 6 6 6 5 6 6 6 5 5 5 5 5 5 5 5 4 5 5 5
3 3 3 3 4 4 4 4 4 5 5 5 6 6 6 6 6 7 7 7 6 7 6 7 7 6 6 6 6 6 6 6 6 6 5 5 5 5 5 5 5 5 4
4 4 4 4 4 5 5 4 4 4 5 5 5 5 5 5 6 6 6 6 7 7 7 7 7 7 6 5 5 6 6 7 7 6 6 6 6 6 5 5 6 5 5
4 4 4 4 4 4 4 5 5 4 5 5 5 4 4 5 5 6 6 6 6 7 7 7 7 8 7 6 6 7 7 7 7 7 6 5 5 5 5 6 7 7 7
4 4 4 4 4 4 4 5 5 5 5 5 4 4 4 4 4 5 5 6 5 6 6 7 7 7 7 5 6 7 9 8 8 7 7 7 6 5 5 6 6 6 6
4 4 4 4 3 4 4 5 5 5 5 5 4 4 4 4 4 4 5 5 5 5 6 6 7 7 7 4 5 6 7 7 8 7 7 7 6 2 4 6 6 7 5
3 3 3 3 4 4 4 5 5 5 5 5 5 4 4 4 4 4 4 4 4 4 4 4 5 6 6 3 4 6 6 7 7 6 6 4 5 3 4 6 6 7 6
2 2 2 3 3 3 5 5 6 5 5 4 4 4 4 4 4 3 3 3 3 3 4 4 4 5 4 3 3 4 5 6 6 5 5 4 3 4 4 6 6 6 6
2 2 2 2 2 3 5 5 5 4 3 4 4 4 4 3 3 3 3 3 3 3 3 3 3 3 3 2 3 3 4 6 6 5 4 3 2 3 4 4 4 4 5
2 2 2 2 2 3 4 5 3 3 4 4 4 4 4 3 3 3 3 3 3 3 2 2 3 2 2 1 2 3 4 5 4 3 2 1 1 2 3 3 3 4 4
2 2 2 2 2 3 3 3 3 4 4 4 4 4 3 3 3 2 2 3 3 3 3 2 2 2 2 1 1 2 2 2 3 2 0 1 1 2 2 1 2 3 3
2 2 3 3 3 3 3 3 3 4 4 3 3 3 3 3 3 2 1 2 2 2 2 3 2 2 2 1 2 2 1 1 2 1 1 1 1 1 1 1 2 2 2
3 3 3 3 3 2 2 2 3 3 3 3 3 3 3 3 3 3 2 2 0 1 0 1 1 1 1 1 1 1 1 2 1 0 0 1 1 1 2 2 2 2 2
Wind_Direction
202 192 189 188 187 185 183 178 179 173 170 167 168 158 150 130 115 111 107 109 118 116 109 130 110 81 76 51 49 72 83 67 26 47 84 135 132 63 54 19 13 36 29
201 191 189 185 190 188 188 183 182 182 178 175 172 165 153 145 128 110 94 89 109 125 141 170 156 143 121 80 54 74 56 71 10 333 288 228 166 101 55 15 3 19 37
207 198 192 190 190 191 190 188 185 180 177 175 163 149 146 157 157 150 133 112 106 104 140 163 182 172 182 119 74 95 86 30 39 359 327 310 320 333 133 25 7 16 16
208 201 195 194 194 194 191 190 186 182 176 175 178 180 185 185 185 172 169 169 153 149 205 211 226 207 185 158 174 122 108 287 4 22 340 336 331 292 282 223 16 18 14
205 202 198 198 196 190 189 191 188 184 182 185 187 197 200 191 179 177 175 175 168 182 201 212 214 225 233 241 235 227 241 263 285 303 302 298 289 289 287 291 313 336 5
196 198 195 194 191 185 186 189 191 187 187 190 191 197 199 190 184 186 181 184 180 190 203 218 214 209 226 245 249 246 241 257 267 276 278 278 284 294 289 284 294 312 342
179 185 188 189 186 187 188 190 191 190 188 194 197 200 202 201 199 195 193 191 192 199 208 212 224 220 231 243 244 245 247 249 255 264 276 280 287 290 285 285 297 305 305
164 176 185 188 187 189 191 193 195 194 192 197 200 201 199 204 205 206 205 203 205 213 212 210 217 222 227 238 232 244 244 247 251 264 268 267 277 282 278 284 289 286 280
161 173 182 186 187 188 191 195 197 198 197 199 201 203 203 202 206 210 210 207 213 218 216 216 219 225 233 238 235 245 247 251 258 265 268 269 267 270 274 273 270 278 281
155 170 174 178 184 190 192 194 198 201 199 200 201 203 205 204 206 206 208 210 215 215 216 220 223 227 229 231 236 247 252 244 243 259 265 267 265 263 264 261 265 269 274
157 162 169 171 173 182 188 194 200 203 202 203 204 203 205 206 205 210 213 215 217 216 216 222 225 227 230 228 224 237 242 245 242 243 255 263 271 262 254 254 256 257 262
157 155 157 164 170 180 184 191 201 203 205 205 205 206 204 204 209 213 217 218 217 220 222 223 228 231 236 234 231 234 239 243 249 250 256 265 265 265 263 256 254 256 258
167 158 157 169 180 185 186 189 197 201 202 202 203 206 207 209 213 217 220 222 221 222 223 225 232 234 238 239 240 239 243 247 252 252 252 258 257 256 259 258 259 260 257
192 185 186 187 187 188 189 192 195 198 196 195 201 208 213 213 216 218 220 223 225 224 227 230 232 233 237 240 241 241 245 249 252 250 251 254 253 256 259 257 259 260 254
223 215 212 206 199 198 197 198 200 199 195 196 204 212 216 215 218 220 222 224 226 228 229 233 235 235 237 240 239 241 245 246 251 253 254 255 262 276 270 262 257 256 253
240 232 228 221 215 207 204 203 206 205 201 201 208 211 215 215 218 220 220 221 225 228 231 235 236 235 236 228 233 247 247 247 250 253 253 252 247 251 253 261 266 262 251
253 245 241 234 227 222 212 207 209 207 207 207 209 209 212 214 218 217 217 222 225 227 231 236 238 238 235 219 222 235 248 250 252 255 254 252 252 244 246 237 238 250 261
262 258 252 246 236 227 222 212 203 203 208 211 210 213 215 216 217 215 219 226 229 230 235 237 240 243 241 227 226 231 243 249 249 250 254 253 251 248 256 255 248 246 243
264 262 255 241 229 224 220 210 204 207 210 214 214 215 217 218 220 221 222 228 232 234 236 238 240 242 240 224 226 233 243 247 246 245 249 255 253 259 263 257 257 260 259
271 265 252 233 220 215 211 208 208 211 216 216 215 214 214 215 220 227 228 228 228 232 236 239 241 243 247 223 222 238 242 245 244 243 244 254 263 254 244 252 259 264 267
280 266 241 226 218 208 207 211 212 218 219 212 208 209 208 214 217 223 228 227 225 226 231 237 243 244 246 220 210 232 245 248 245 241 243 244 223 237 246 262 264 274 279
274 251 228 222 219 212 212 216 218 218 209 203 203 206 208 207 208 209 222 227 222 225 229 236 243 249 241 243 225 226 251 269 245 245 249 249 195 219 240 253 283 290 275
259 249 230 223 228 224 224 222 217 204 202 204 206 209 211 209 211 207 208 221 221 225 232 238 244 250 261 250 219 229 248 267 251 251 285 317 240 231 236 251 275 264 257
244 241 229 221 227 234 234 230 207 199 200 204 209 212 210 206 201 202 204 212 220 225 227 236 247 250 248 262 253 243 244 245 257 267 218 159 173 231 276 271 248 257 264
229 227 227 225 229 229 230 224 203 198 198 200 204 209 209 204 194 181 189 220 212 233 238 233 233 240 251 297 333 287 259 264 281 284 276 275 250 261 265 270 279 280 273
215 215 221 222 225 221 220 215 206 200 197 199 202 206 206 195 187 181 165 94 74 88 344 286 263 273 320 28 37 16 54 74 90 228 217 280 286 291 288 280 278 280 281
Height
1523 1524 1526 1527 1528 1530 1531 1533 1534 1535 1536 1536 1537 1538 1538 1539 1539 1539 1539 1539 1539 1539 1539 1539 1539 1539 1539 1538 1538 1537 1537 1537 1537 1537 1536 1536 1535 1535 1534 1533 1533 1532 1531
1520 1522 1523 1524 1526 1528 1529 1531 1533 1534 1535 1535 1536 1537 1537 1538 1538 1538 1538 1538 1538 1538 1539 1539 1539 1538 1538 1537 1537 1536 1537 1536 1536 1537 1537 1536 1537 1535 1534 1533 1532 1532 1530
1517 1518 1520 1522 1524 1525 1527 1529 1530 1532 1533 1534 1535 1536 1536 1536 1537 1537 1537 1537 1537 1537 1538 1538 1538 1538 1538 1537 1537 1536 1536 1536 1536 1536 1537 1536 1535 1535 1535 1533 1532 1531 1530
1514 1515 1517 1519 1521 1523 1525 1527 1529 1530 1531 1532 1533 1534 1535 1536 1536 1536 1536 1536 1536 1536 1536 1537 1537 1537 1537 1536 1536 1536 1536 1536 1536 1536 1535 1536 1535 1535 1534 1534 1532 1531 1530
1510 1512 1514 1516 1519 1521 1523 1525 1527 1528 1529 1531 1532 1533 1534 1534 1535 1535 1535 1535 1535 1535 1535 1535 1535 1536 1536 1536 1535 1535 1535 1535 1535 1535 1535 1535 1534 1534 1534 1533 1532 1531 1530
1508 1510 1512 1514 1516 1518 1520 1522 1524 1526 1527 1528 1530 1531 1532 1533 1533 1533 1533 1534 1534 1533 1533 1533 1534 1534 1534 1534 1534 1534 1534 1534 1534 1534 1534 1534 1534 1533 1533 1532 1531 1530 1530
1505 1507 1509 1511 1513 1515 1517 1519 1521 1523 1524 1526 1527 1528 1530 1531 1532 1532 1532 1532 1532 1532 1532 1532 1532 1532 1532 1532 1532 1532 1532 1532 1532 1532 1533 1532 1532 1532 1532 1531 1530 1529 1529
1503 1505 1506 1508 1510 1512 1515 1517 1518 1520 1522 1523 1525 1526 1527 1528 1529 1530 1530 1530 1530 1530 1530 1530 1530 1530 1530 1530 1530 1531 1531 1531 1531 1531 1531 1530 1530 1530 1530 1530 1529 1528 1528
1502 1503 1504 1506 1508 1510 1512 1514 1516 1518 1519 1521 1522 1524 1525 1526 1527 1527 1528 1528 1528 1528 1528 1528 1528 1528 1528 1528 1528 1528 1529 1528 1528 1529 1529 1528 1528 1528 1527 1527 1527 1528 1526
1500 1501 1502 1504 1506 1508 1510 1512 1514 1515 1517 1518 1519 1521 1522 1523 1524 1525 1525 1525 1526 1526 1526 1526 1526 1526 1526 1526 1526 1526 1526 1526 1526 1526 1526 1526 1526 1525 1525 1525 1525 1525 1525
1499 1500 1501 1502 1503 1505 1507 1509 1511 1513 1514 1515 1517 1518 1519 1520 1521 1522 1522 1523 1523 1523 1523 1523 1523 1523 1523 1524 1523 1523 1523 1523 1523 1523 1523 1523 1523 1523 1523 1522 1522 1522 1522
1498 1498 1499 1500 1501 1503 1504 1506 1507 1509 1510 1512 1513 1515 1516 1517 1518 1519 1519 1520 1520 1520 1521 1521 1521 1521 1521 1521 1521 1521 1520 1521 1521 1520 1520 1520 1520 1520 1520 1520 1520 1519 1519
1496 1497 1498 1498 1499 1500 1502 1503 1504 1505 1507 1508 1510 1511 1512 1513 1514 1515 1516 1516 1517 1517 1517 1518 1518 1518 1518 1518 1518 1518 1518 1518 1518 1517 1517 1517 1517 1517 1517 1516 1516 1516 1516
1495 1495 1496 1496 1497 1498 1499 1500 1501 1503 1504 1505 1507 1508 1509 1510 1511 1511 1512 1513 1513 1514 1514 1514 1514 1515 1515 1515 1514 1515 1515 1515 1514 1514 1514 1513 1513 1513 1513 1513 1513 1513 1512
1493 1493 1494 1494 1495 1496 1497 1498 1499 1500 1501 1502 1503 1504 1506 1506 1507 1508 1508 1509 1509 1510 1510 1510 1511 1511 1511 1511 1511 1511 1511 1511 1511 1510 1510 1510 1509 1509 1509 1509 1509 1509 1509
1491 1491 1491 1492 1492 1493 1494 1495 1496 1497 1498 1499 1500 1501 1502 1502 1503 1504 1504 1505 1505 1505 1506 1506 1506 1507 1507 1507 1507 1507 1507 1507 1507 1507 1506 1506 1505 1504 1504 1504 1504 1505 1505
1488 1489 1489 1489 1489 1490 1491 1492 1493 1494 1495 1496 1497 1498 1499 1499 1499 1500 1500 1501 1501 1501 1502 1502 1502 1502 1502 1502 1502 1503 1503 1503 1503 1503 1503 1502 1501 1501 1501 1500 1501 1501 1501
1486 1486 1486 1486 1487 1487 1488 1489 1490 1491 1492 1493 1494 1494 1495 1496 1496 1496 1496 1497 1497 1497 1497 1497 1498 1498 1498 1498 1498 1498 1499 1499 1499 1499 1498 1498 1498 1497 1497 1497 1497 1497 1497
1483 1483 1483 1484 1484 1484 1485 1486 1487 1488 1488 1489 1490 1491 1491 1492 1492 1492 1492 1493 1493 1493 1493 1493 1493 1493 1493 1493 1493 1494 1494 1495 1495 1494 1494 1494 1494 1493 1493 1494 1494 1494 1493
1480 1480 1480 1480 1481 1481 1482 1483 1483 1484 1485 1485 1486 1487 1488 1488 1488 1489 1489 1489 1489 1489 1489 1489 1489 1489 1489 1489 1489 1489 1490 1490 1490 1490 1490 1489 1490 1489 1489 1490 1490 1489 1489
1478 1477 1478 1478 1478 1478 1479 1479 1480 1481 1481 1482 1483 1484 1485 1485 1485 1485 1485 1485 1485 1485 1485 1485 1485 1485 1485 1484 1484 1485 1485 1485 1486 1486 1486 1486 1485 1485 1485 1485 1485 1485 1485
1475 1475 1475 1475 1475 1476 1476 1476 1476 1477 1478 1479 1479 1480 1481 1482 1482 1482 1482 1482 1482 1482 1481 1481 1481 1481 1480 1480 1480 1480 1480 1481 1481 1482 1482 1482 1482 1481 1481 1481 1481 1481 1481
1473 1473 1472 1472 1473 1473 1473 1473 1473 1474 1474 1475 1476 1477 1478 1478 1478 1478 1478 1478 1478 1478 1478 1478 1478 1477 1477 1476 1476 1476 1476 1476 1477 1478 1478 1478 1478 1478 1478 1477 1477 1477 1477
1470 1470 1470 1470 1470 1470 1470 1470 1470 1471 1471 1472 1473 1474 1474 1475 1475 1475 1475 1475 1475 1475 1475 1475 1474 1474 1474 1473 1473 1473 1473 1473 1473 1474 1474 1474 1474 1473 1473 1473 1473 1473 1473
1467 1467 1467 1467 1467 1467 1468 1468 1468 1468 1469 1469 1470 1470 1471 1471 1472 1472 1472 1472 1472 1472 1472 1471 1471 1471 1471 1471 1470 1470 1470 1470 1470 1470 1470 1470 1470 1470 1470 1470 1470 1470 1470
1464 1464 1465 1465 1465 1465 1465 1465 1465 1466 1466 1466 1467 1467 1468 1468 1468 1469 1469 1469 1469 1469 1469 1469 1469 1468 1468 1468 1468 1468 1467 1467 1467 1468 1467 1467 1467 1467 1467 1467 1467 1467 1467